QPF
0.04 0.04 0.03 0.04 0.04 0.05 0.06 0.05 0.05 0.05 0.06 0.05 0.04 0.02 0.04 0.11 0.09 0.08 0.06 0.03 0.01 0.01 0.02 0.02 0.03 0.03 0.05 0.06 0.05 0.04 0.05 0.05 0.04 0.03 0.02 0.02 0.03 0.04 0.04 0.04 0.04 0.04 0.04
0.03 0.03 0.04 0.06 0.05 0.07 0.09 0.07 0.07 0.05 0.06 0.08 0.07 0.05 0.05 0.08 0.10 0.12 0.08 0.04 0.02 0.01 0.01 0.02 0.02 0.03 0.03 0.04 0.05 0.04 0.03 0.04 0.05 0.05 0.04 0.02 0.02 0.02 0.03 0.04 0.03 0.03 0.03
0.05 0.04 0.05 0.06 0.06 0.06 0.07 0.07 0.10 0.08 0.07 0.08 0.09 0.10 0.06 0.08 0.09 0.13 0.16 0.07 0.02 0.02 0.02 0.02 0.02 0.02 0.02 0.03 0.04 0.04 0.03 0.03 0.04 0.04 0.04 0.03 0.02 0.02 0.02 0.03 0.03 0.03 0.03
0.04 0.04 0.05 0.06 0.07 0.07 0.08 0.08 0.09 0.09 0.08 0.08 0.09 0.11 0.08 0.07 0.07 0.09 0.16 0.09 0.04 0.03 0.02 0.03 0.02 0.02 0.02 0.02 0.03 0.04 0.04 0.03 0.03 0.03 0.04 0.04 0.03 0.02 0.02 0.02 0.02 0.03 0.03
0.03 0.04 0.06 0.08 0.08 0.08 0.09 0.07 0.08 0.09 0.08 0.08 0.08 0.08 0.08 0.06 0.06 0.06 0.10 0.08 0.05 0.04 0.02 0.02 0.02 0.02 0.01 0.02 0.02 0.04 0.05 0.05 0.05 0.05 0.05 0.06 0.05 0.04 0.02 0.02 0.01 0.02 0.03
0.04 0.05 0.06 0.06 0.06 0.06 0.07 0.07 0.08 0.08 0.07 0.06 0.07 0.08 0.06 0.05 0.05 0.05 0.05 0.08 0.06 0.04 0.03 0.02 0.01 0.01 0.01 0.01 0.02 0.04 0.05 0.06 0.07 0.07 0.09 0.10 0.09 0.06 0.04 0.02 0.02 0.02 0.03
0.05 0.04 0.05 0.05 0.05 0.05 0.04 0.04 0.05 0.06 0.06 0.07 0.08 0.10 0.09 0.08 0.06 0.05 0.05 0.07 0.05 0.05 0.07 0.05 0.03 0.02 0.01 0.01 0.02 0.03 0.04 0.05 0.07 0.08 0.08 0.08 0.08 0.06 0.03 0.02 0.02 0.02 0.02
0.05 0.05 0.04 0.03 0.03 0.04 0.04 0.03 0.04 0.05 0.05 0.07 0.08 0.09 0.09 0.11 0.09 0.05 0.05 0.06 0.05 0.05 0.07 0.06 0.04 0.04 0.02 0.02 0.02 0.02 0.03 0.04 0.06 0.07 0.06 0.05 0.04 0.04 0.03 0.02 0.02 0.02 0.02
0.05 0.07 0.06 0.05 0.04 0.05 0.04 0.04 0.04 0.06 0.05 0.06 0.07 0.08 0.08 0.06 0.06 0.06 0.05 0.05 0.04 0.04 0.03 0.04 0.05 0.04 0.04 0.03 0.03 0.02 0.02 0.03 0.04 0.05 0.04 0.04 0.04 0.03 0.03 0.02 0.02 0.02 0.02
0.07 0.06 0.05 0.06 0.06 0.05 0.05 0.04 0.04 0.05 0.06 0.06 0.07 0.07 0.06 0.06 0.07 0.08 0.07 0.06 0.06 0.05 0.04 0.03 0.04 0.04 0.03 0.04 0.04 0.04 0.02 0.02 0.03 0.03 0.03 0.03 0.04 0.04 0.04 0.03 0.03 0.03 0.03
0.07 0.06 0.04 0.05 0.06 0.05 0.05 0.05 0.06 0.05 0.06 0.06 0.06 0.07 0.08 0.08 0.08 0.09 0.08 0.08 0.08 0.06 0.05 0.05 0.06 0.06 0.03 0.03 0.04 0.03 0.02 0.02 0.02 0.02 0.02 0.02 0.02 0.03 0.04 0.04 0.04 0.04 0.03
0.08 0.07 0.07 0.07 0.07 0.07 0.07 0.06 0.06 0.05 0.06 0.06 0.07 0.06 0.07 0.07 0.07 0.08 0.09 0.09 0.08 0.06 0.05 0.05 0.05 0.06 0.04 0.03 0.03 0.03 0.01 0.01 0.02 0.01 0.01 0.01 0.01 0.02 0.03 0.05 0.05 0.04 0.04
0.07 0.07 0.07 0.08 0.09 0.09 0.08 0.06 0.05 0.05 0.05 0.05 0.04 0.05 0.05 0.05 0.05 0.06 0.07 0.07 0.07 0.07 0.08 0.05 0.03 0.04 0.02 0.03 0.02 0.02 0.01 0.01 0.01 0.01 0.02 0.02 0.02 0.02 0.03 0.04 0.05 0.06 0.05
0.05 0.06 0.06 0.07 0.06 0.06 0.06 0.07 0.06 0.06 0.06 0.05 0.04 0.05 0.05 0.04 0.05 0.06 0.07 0.07 0.07 0.07 0.07 0.05 0.03 0.03 0.03 0.02 0.01 0.01 0.01 0.01 0.01 0.01 0.01 0.02 0.02 0.02 0.02 0.02 0.03 0.04 0.05
0.05 0.05 0.06 0.06 0.07 0.07 0.07 0.07 0.07 0.07 0.07 0.05 0.05 0.05 0.04 0.04 0.06 0.05 0.06 0.06 0.07 0.07 0.06 0.04 0.04 0.02 0.02 0.02 0.02 0.01 0.01 0.01 0.01 0.01 0.01 0.01 0.01 0.01 0.02 0.02 0.02 0.03 0.05
0.05 0.05 0.05 0.05 0.07 0.07 0.07 0.07 0.06 0.06 0.06 0.05 0.05 0.05 0.04 0.04 0.05 0.06 0.07 0.06 0.06 0.06 0.05 0.04 0.04 0.02 0.02 0.02 0.01 0.01 0.01 0.01 0.01 0.01 0.01 0.01 0.01 0.01 0.01 0.01 0.01 0.02 0.03
0.06 0.05 0.05 0.06 0.06 0.05 0.05 0.05 0.05 0.05 0.05 0.06 0.06 0.06 0.06 0.06 0.07 0.07 0.07 0.07 0.07 0.07 0.06 0.04 0.04 0.04 0.05 0.04 0.03 0.04 0.03 0.02 0.01 0.01 0.01 0.01 0.01 0.01 0.01 0.02 0.02 0.03 0.04
0.06 0.06 0.05 0.06 0.05 0.04 0.04 0.04 0.04 0.05 0.06 0.06 0.06 0.08 0.08 0.07 0.08 0.07 0.07 0.08 0.08 0.08 0.07 0.06 0.05 0.05 0.07 0.05 0.04 0.03 0.02 0.01 0.01 0.01 0.01 0.00 0.00 0.01 0.01 0.01 0.02 0.04 0.04
0.06 0.06 0.05 0.05 0.05 0.05 0.05 0.06 0.06 0.07 0.06 0.05 0.06 0.07 0.06 0.07 0.06 0.06 0.06 0.06 0.07 0.07 0.07 0.06 0.04 0.04 0.04 0.04 0.04 0.03 0.02 0.02 0.01 0.01 0.01 0.00 0.00 0.01 0.01 0.01 0.02 0.03 0.03
0.04 0.04 0.05 0.05 0.05 0.05 0.05 0.07 0.08 0.08 0.07 0.07 0.06 0.05 0.05 0.05 0.04 0.05 0.04 0.05 0.05 0.06 0.07 0.06 0.05 0.04 0.04 0.04 0.05 0.05 0.04 0.04 0.03 0.01 0.01 0.01 0.01 0.01 0.01 0.01 0.01 0.01 0.02
0.03 0.04 0.05 0.05 0.06 0.05 0.05 0.06 0.08 0.08 0.09 0.08 0.06 0.05 0.05 0.04 0.04 0.04 0.03 0.03 0.04 0.05 0.06 0.05 0.05 0.04 0.04 0.04 0.04 0.04 0.05 0.05 0.05 0.03 0.03 0.02 0.01 0.01 0.01 0.01 0.01 0.02 0.01
0.03 0.04 0.06 0.05 0.04 0.03 0.03 0.04 0.05 0.07 0.10 0.08 0.06 0.05 0.05 0.05 0.05 0.05 0.04 0.03 0.04 0.04 0.05 0.05 0.05 0.05 0.04 0.04 0.04 0.04 0.05 0.05 0.05 0.04 0.05 0.04 0.02 0.02 0.02 0.02 0.01 0.01 0.01
0.04 0.05 0.06 0.06 0.05 0.04 0.03 0.03 0.03 0.04 0.06 0.06 0.06 0.06 0.05 0.05 0.06 0.05 0.05 0.04 0.03 0.04 0.05 0.05 0.05 0.05 0.04 0.04 0.04 0.04 0.04 0.04 0.04 0.05 0.06 0.05 0.05 0.05 0.03 0.03 0.03 0.03 0.02
0.04 0.05 0.06 0.05 0.04 0.04 0.04 0.03 0.03 0.03 0.04 0.05 0.05 0.06 0.07 0.06 0.05 0.05 0.05 0.04 0.03 0.04 0.05 0.04 0.05 0.05 0.05 0.04 0.04 0.04 0.04 0.05 0.04 0.04 0.06 0.05 0.05 0.06 0.04 0.05 0.05 0.03 0.03
0.03 0.04 0.05 0.06 0.06 0.05 0.03 0.03 0.04 0.05 0.06 0.07 0.07 0.07 0.06 0.07 0.05 0.05 0.05 0.04 0.04 0.04 0.04 0.05 0.05 0.05 0.05 0.05 0.05 0.05 0.05 0.06 0.05 0.04 0.06 0.06 0.05 0.05 0.05 0.06 0.04 0.03 0.03
0.03 0.03 0.04 0.04 0.04 0.04 0.03 0.02 0.03 0.04 0.04 0.06 0.06 0.05 0.05 0.05 0.03 0.03 0.03 0.04 0.03 0.03 0.04 0.05 0.05 0.06 0.07 0.09 0.08 0.06 0.07 0.07 0.06 0.05 0.05 0.06 0.05 0.06 0.06 0.06 0.05 0.04 0.03
MSLP
1015.56 1015.91 1016.15 1016.31 1016.43 1016.53 1016.66 1016.82 1017.02 1017.24 1017.47 1017.67 1017.83 1017.94 1017.99 1018.01 1018.01 1018.01 1018.02 1018.07 1018.16 1018.30 1018.47 1018.68 1018.92 1019.19 1019.46 1019.73 1019.99 1020.22 1020.41 1020.56 1020.67 1020.75 1020.82 1020.87 1020.91 1020.96 1021.00 1021.02 1021.02 1021.01 1020.98
1015.26 1015.64 1015.94 1016.16 1016.34 1016.49 1016.66 1016.85 1017.07 1017.31 1017.54 1017.76 1017.92 1018.03 1018.08 1018.08 1018.04 1018.00 1017.97 1017.99 1018.05 1018.19 1018.38 1018.63 1018.93 1019.25 1019.57 1019.87 1020.14 1020.34 1020.50 1020.60 1020.66 1020.69 1020.72 1020.76 1020.81 1020.88 1020.96 1021.03 1021.09 1021.13 1021.15
1014.96 1015.36 1015.70 1015.98 1016.22 1016.44 1016.66 1016.89 1017.13 1017.38 1017.62 1017.84 1018.00 1018.11 1018.14 1018.12 1018.05 1017.97 1017.90 1017.87 1017.91 1018.04 1018.25 1018.53 1018.87 1019.24 1019.60 1019.94 1020.22 1020.42 1020.56 1020.63 1020.65 1020.66 1020.67 1020.71 1020.78 1020.87 1020.99 1021.12 1021.24 1021.34 1021.41
1014.65 1015.06 1015.43 1015.77 1016.07 1016.36 1016.63 1016.90 1017.16 1017.43 1017.68 1017.89 1018.06 1018.15 1018.18 1018.14 1018.04 1017.93 1017.82 1017.76 1017.77 1017.87 1018.07 1018.36 1018.72 1019.12 1019.52 1019.88 1020.18 1020.40 1020.55 1020.62 1020.65 1020.66 1020.68 1020.73 1020.82 1020.95 1021.11 1021.28 1021.45 1021.60 1021.72
1014.36 1014.75 1015.15 1015.53 1015.89 1016.22 1016.54 1016.85 1017.14 1017.42 1017.67 1017.89 1018.06 1018.16 1018.18 1018.14 1018.04 1017.90 1017.77 1017.67 1017.64 1017.70 1017.87 1018.14 1018.49 1018.89 1019.30 1019.68 1020.02 1020.27 1020.45 1020.56 1020.63 1020.67 1020.73 1020.81 1020.94 1021.10 1021.30 1021.50 1021.71 1021.90 1022.06
1014.08 1014.45 1014.85 1015.25 1015.65 1016.03 1016.39 1016.72 1017.04 1017.33 1017.59 1017.82 1018.00 1018.12 1018.16 1018.14 1018.05 1017.92 1017.77 1017.65 1017.57 1017.58 1017.70 1017.91 1018.21 1018.58 1018.98 1019.38 1019.74 1020.04 1020.27 1020.45 1020.58 1020.69 1020.81 1020.94 1021.10 1021.30 1021.52 1021.76 1021.99 1022.20 1022.38
1013.83 1014.15 1014.53 1014.94 1015.36 1015.77 1016.16 1016.52 1016.85 1017.16 1017.44 1017.68 1017.88 1018.03 1018.12 1018.14 1018.09 1017.98 1017.84 1017.69 1017.58 1017.54 1017.58 1017.71 1017.94 1018.26 1018.62 1019.01 1019.39 1019.74 1020.04 1020.30 1020.51 1020.71 1020.89 1021.09 1021.29 1021.52 1021.76 1022.01 1022.25 1022.47 1022.67
1013.59 1013.87 1014.22 1014.62 1015.05 1015.47 1015.87 1016.24 1016.59 1016.91 1017.20 1017.47 1017.71 1017.91 1018.05 1018.13 1018.14 1018.07 1017.95 1017.81 1017.67 1017.57 1017.53 1017.58 1017.73 1017.97 1018.28 1018.64 1019.03 1019.41 1019.78 1020.12 1020.43 1020.71 1020.98 1021.23 1021.48 1021.73 1021.98 1022.23 1022.48 1022.70 1022.91
1013.39 1013.61 1013.92 1014.30 1014.71 1015.12 1015.53 1015.91 1016.27 1016.60 1016.91 1017.21 1017.49 1017.74 1017.94 1018.09 1018.17 1018.16 1018.09 1017.96 1017.81 1017.67 1017.57 1017.54 1017.59 1017.75 1018.00 1018.33 1018.71 1019.12 1019.55 1019.96 1020.35 1020.71 1021.05 1021.35 1021.64 1021.91 1022.17 1022.42 1022.66 1022.89 1023.10
1013.20 1013.37 1013.64 1013.97 1014.35 1014.76 1015.15 1015.53 1015.89 1016.23 1016.56 1016.88 1017.20 1017.50 1017.77 1017.99 1018.14 1018.21 1018.19 1018.10 1017.96 1017.79 1017.65 1017.56 1017.54 1017.63 1017.82 1018.11 1018.48 1018.91 1019.37 1019.83 1020.29 1020.72 1021.11 1021.46 1021.77 1022.06 1022.32 1022.57 1022.80 1023.03 1023.25
1013.03 1013.14 1013.35 1013.64 1013.98 1014.36 1014.74 1015.11 1015.47 1015.81 1016.16 1016.50 1016.85 1017.19 1017.52 1017.80 1018.02 1018.15 1018.19 1018.15 1018.04 1017.90 1017.74 1017.62 1017.57 1017.61 1017.75 1018.01 1018.37 1018.79 1019.28 1019.78 1020.28 1020.75 1021.18 1021.56 1021.89 1022.19 1022.45 1022.69 1022.93 1023.16 1023.39
1012.84 1012.90 1013.05 1013.29 1013.59 1013.92 1014.28 1014.63 1014.99 1015.34 1015.69 1016.05 1016.42 1016.80 1017.16 1017.49 1017.76 1017.96 1018.07 1018.09 1018.04 1017.93 1017.80 1017.69 1017.63 1017.66 1017.79 1018.03 1018.37 1018.80 1019.29 1019.81 1020.33 1020.82 1021.27 1021.68 1022.02 1022.32 1022.59 1022.83 1023.06 1023.29 1023.53
1012.62 1012.63 1012.72 1012.90 1013.14 1013.44 1013.76 1014.10 1014.45 1014.80 1015.16 1015.54 1015.92 1016.31 1016.70 1017.06 1017.38 1017.63 1017.80 1017.89 1017.91 1017.87 1017.80 1017.74 1017.73 1017.78 1017.92 1018.16 1018.50 1018.93 1019.41 1019.93 1020.46 1020.96 1021.42 1021.83 1022.18 1022.49 1022.75 1022.99 1023.22 1023.45 1023.68
1012.34 1012.30 1012.34 1012.46 1012.65 1012.90 1013.19 1013.52 1013.86 1014.21 1014.58 1014.96 1015.35 1015.75 1016.15 1016.54 1016.88 1017.18 1017.41 1017.58 1017.68 1017.73 1017.75 1017.78 1017.83 1017.94 1018.12 1018.39 1018.74 1019.17 1019.65 1020.16 1020.67 1021.17 1021.63 1022.04 1022.39 1022.70 1022.96 1023.19 1023.42 1023.64 1023.87
1012.01 1011.93 1011.91 1011.97 1012.11 1012.32 1012.58 1012.89 1013.22 1013.58 1013.95 1014.34 1014.74 1015.14 1015.55 1015.94 1016.31 1016.65 1016.94 1017.17 1017.37 1017.52 1017.65 1017.79 1017.94 1018.13 1018.38 1018.69 1019.06 1019.49 1019.96 1020.46 1020.96 1021.45 1021.89 1022.30 1022.65 1022.95 1023.21 1023.43 1023.65 1023.86 1024.06
1011.62 1011.50 1011.45 1011.46 1011.55 1011.72 1011.96 1012.24 1012.57 1012.92 1013.30 1013.70 1014.10 1014.51 1014.92 1015.33 1015.72 1016.08 1016.42 1016.73 1017.02 1017.28 1017.53 1017.78 1018.04 1018.33 1018.65 1019.01 1019.42 1019.86 1020.32 1020.81 1021.29 1021.75 1022.18 1022.57 1022.91 1023.21 1023.46 1023.68 1023.88 1024.07 1024.25
1011.19 1011.05 1010.97 1010.95 1011.00 1011.14 1011.34 1011.61 1011.92 1012.28 1012.66 1013.06 1013.47 1013.88 1014.30 1014.71 1015.12 1015.52 1015.91 1016.29 1016.66 1017.02 1017.38 1017.75 1018.12 1018.50 1018.90 1019.32 1019.75 1020.20 1020.66 1021.13 1021.59 1022.03 1022.44 1022.81 1023.14 1023.43 1023.68 1023.89 1024.07 1024.24 1024.40
1010.74 1010.59 1010.49 1010.45 1010.48 1010.59 1010.77 1011.02 1011.32 1011.66 1012.04 1012.44 1012.85 1013.27 1013.70 1014.12 1014.55 1014.98 1015.41 1015.85 1016.30 1016.75 1017.21 1017.67 1018.14 1018.61 1019.07 1019.54 1020.00 1020.46 1020.91 1021.36 1021.79 1022.21 1022.60 1022.96 1023.28 1023.55 1023.79 1023.99 1024.17 1024.32 1024.46
1010.25 1010.12 1010.03 1009.98 1010.01 1010.09 1010.25 1010.47 1010.75 1011.08 1011.45 1011.84 1012.25 1012.68 1013.11 1013.54 1013.99 1014.45 1014.92 1015.41 1015.92 1016.44 1016.98 1017.52 1018.06 1018.60 1019.11 1019.61 1020.09 1020.55 1020.99 1021.42 1021.83 1022.23 1022.60 1022.94 1023.25 1023.52 1023.76 1023.96 1024.13 1024.28 1024.42
1009.74 1009.63 1009.56 1009.54 1009.56 1009.64 1009.78 1009.97 1010.22 1010.53 1010.87 1011.25 1011.66 1012.08 1012.51 1012.96 1013.42 1013.90 1014.41 1014.94 1015.49 1016.07 1016.66 1017.26 1017.85 1018.43 1018.98 1019.49 1019.98 1020.43 1020.87 1021.27 1021.67 1022.04 1022.40 1022.73 1023.04 1023.31 1023.54 1023.75 1023.93 1024.09 1024.23
1009.18 1009.11 1009.08 1009.08 1009.12 1009.19 1009.32 1009.49 1009.72 1009.99 1010.31 1010.66 1011.05 1011.46 1011.90 1012.35 1012.83 1013.34 1013.86 1014.42 1015.01 1015.62 1016.24 1016.87 1017.48 1018.08 1018.64 1019.16 1019.64 1020.09 1020.51 1020.90 1021.28 1021.64 1021.99 1022.32 1022.62 1022.90 1023.15 1023.37 1023.57 1023.75 1023.91
1008.57 1008.54 1008.56 1008.59 1008.65 1008.74 1008.86 1009.02 1009.21 1009.45 1009.74 1010.07 1010.43 1010.84 1011.27 1011.73 1012.22 1012.74 1013.29 1013.86 1014.47 1015.09 1015.72 1016.35 1016.98 1017.57 1018.12 1018.64 1019.11 1019.54 1019.95 1020.33 1020.70 1021.06 1021.40 1021.73 1022.05 1022.34 1022.61 1022.85 1023.07 1023.28 1023.47
1007.90 1007.92 1007.98 1008.05 1008.15 1008.25 1008.37 1008.52 1008.69 1008.91 1009.17 1009.47 1009.83 1010.22 1010.65 1011.12 1011.62 1012.14 1012.70 1013.29 1013.89 1014.51 1015.14 1015.76 1016.37 1016.94 1017.48 1017.98 1018.44 1018.86 1019.26 1019.63 1019.99 1020.35 1020.70 1021.04 1021.36 1021.67 1021.96 1022.23 1022.48 1022.72 1022.94
1007.20 1007.26 1007.35 1007.47 1007.60 1007.73 1007.86 1008.01 1008.18 1008.38 1008.62 1008.91 1009.26 1009.64 1010.08 1010.55 1011.06 1011.59 1012.15 1012.74 1013.34 1013.95 1014.56 1015.16 1015.74 1016.29 1016.80 1017.28 1017.72 1018.13 1018.51 1018.88 1019.25 1019.61 1019.96 1020.31 1020.65 1020.98 1021.29 1021.57 1021.84 1022.10 1022.35
1006.53 1006.60 1006.73 1006.88 1007.03 1007.19 1007.34 1007.50 1007.68 1007.88 1008.13 1008.42 1008.76 1009.16 1009.59 1010.07 1010.59 1011.13 1011.69 1012.27 1012.86 1013.45 1014.03 1014.61 1015.16 1015.68 1016.17 1016.62 1017.04 1017.44 1017.82 1018.19 1018.55 1018.91 1019.27 1019.63 1019.98 1020.31 1020.63 1020.93 1021.21 1021.47 1021.73
1005.93 1006.02 1006.15 1006.33 1006.51 1006.69 1006.86 1007.05 1007.24 1007.46 1007.72 1008.03 1008.38 1008.78 1009.23 1009.72 1010.24 1010.78 1011.34 1011.91 1012.48 1013.05 1013.61 1014.16 1014.68 1015.18 1015.64 1016.08 1016.49 1016.87 1017.24 1017.60 1017.96 1018.32 1018.68 1019.04 1019.38 1019.71 1020.03 1020.32 1020.59 1020.85 1021.09
Thickness
5739 5738 5736 5735 5735 5733 5732 5731 5731 5732 5732 5733 5733 5734 5735 5735 5735 5734 5732 5732 5731 5730 5728 5726 5724 5723 5722 5721 5720 5719 5718 5716 5716 5714 5713 5712 5712 5711 5710 5709 5708 5707 5706
5736 5734 5733 5732 5732 5731 5729 5728 5728 5729 5729 5729 5730 5731 5731 5731 5732 5731 5729 5729 5729 5727 5726 5724 5723 5722 5721 5720 5718 5717 5716 5715 5714 5713 5711 5710 5709 5708 5708 5707 5706 5705 5705
5733 5732 5730 5729 5729 5728 5727 5726 5725 5725 5725 5726 5725 5726 5728 5728 5728 5728 5726 5726 5726 5724 5723 5722 5721 5720 5718 5717 5716 5715 5714 5713 5712 5711 5710 5708 5707 5706 5705 5704 5704 5703 5703
5732 5730 5728 5727 5727 5725 5724 5723 5722 5720 5720 5720 5721 5723 5725 5725 5725 5726 5725 5724 5723 5722 5720 5719 5718 5717 5716 5715 5714 5712 5712 5711 5709 5709 5708 5707 5705 5704 5703 5702 5701 5701 5700
5729 5727 5726 5725 5723 5722 5720 5719 5718 5717 5715 5716 5717 5720 5721 5721 5722 5723 5723 5722 5721 5720 5719 5717 5715 5714 5713 5712 5711 5710 5709 5708 5707 5706 5705 5704 5703 5702 5701 5700 5699 5698 5698
5726 5724 5723 5721 5720 5718 5716 5715 5713 5713 5712 5712 5713 5715 5716 5718 5719 5719 5719 5719 5719 5718 5716 5715 5713 5711 5710 5709 5708 5707 5706 5705 5704 5703 5702 5701 5700 5699 5698 5697 5697 5696 5695
5723 5721 5719 5717 5716 5714 5712 5711 5708 5707 5707 5708 5705 5705 5709 5713 5714 5715 5716 5714 5715 5714 5713 5711 5710 5708 5707 5706 5704 5703 5702 5701 5701 5700 5699 5698 5697 5696 5695 5694 5694 5693 5692
5719 5718 5714 5712 5711 5709 5707 5706 5704 5701 5702 5703 5699 5695 5695 5699 5705 5710 5711 5710 5711 5710 5709 5708 5707 5705 5704 5703 5701 5699 5698 5698 5697 5696 5695 5694 5693 5693 5692 5691 5691 5690 5689
5716 5713 5710 5707 5706 5704 5702 5701 5699 5697 5695 5697 5697 5692 5687 5687 5692 5700 5704 5705 5706 5705 5705 5704 5703 5702 5701 5699 5698 5696 5695 5694 5693 5692 5691 5690 5690 5689 5689 5688 5688 5687 5686
5712 5709 5706 5703 5701 5699 5697 5696 5696 5695 5692 5690 5691 5692 5690 5688 5683 5685 5692 5698 5699 5699 5700 5700 5699 5698 5697 5695 5694 5693 5691 5690 5689 5688 5687 5686 5686 5685 5685 5685 5684 5684 5683
5708 5705 5703 5700 5697 5695 5694 5692 5692 5691 5689 5686 5685 5685 5684 5684 5683 5678 5678 5684 5688 5692 5694 5694 5692 5692 5692 5691 5690 5689 5687 5685 5684 5683 5682 5682 5681 5681 5681 5681 5681 5681 5680
5703 5701 5699 5696 5693 5691 5690 5689 5688 5686 5685 5683 5682 5681 5679 5677 5677 5675 5674 5676 5678 5683 5687 5689 5688 5688 5687 5687 5686 5685 5683 5681 5680 5678 5677 5677 5677 5677 5677 5677 5677 5677 5677
5698 5697 5696 5693 5690 5688 5686 5685 5683 5681 5680 5678 5677 5676 5676 5676 5676 5674 5672 5671 5672 5676 5679 5682 5684 5684 5683 5683 5681 5680 5678 5676 5675 5673 5672 5672 5672 5672 5672 5673 5673 5673 5673
5696 5694 5692 5689 5687 5685 5683 5681 5679 5678 5677 5675 5674 5672 5671 5672 5672 5671 5669 5666 5664 5667 5670 5673 5677 5679 5678 5678 5677 5675 5673 5671 5670 5669 5668 5667 5667 5667 5667 5668 5668 5669 5669
5693 5691 5688 5686 5683 5682 5680 5677 5675 5673 5672 5670 5669 5668 5667 5667 5667 5667 5667 5664 5659 5657 5660 5665 5668 5672 5673 5672 5671 5669 5668 5666 5665 5664 5663 5663 5662 5662 5662 5663 5663 5664 5665
5690 5687 5684 5682 5679 5677 5676 5673 5670 5669 5667 5665 5664 5662 5661 5662 5662 5662 5661 5660 5659 5655 5655 5661 5663 5666 5666 5667 5665 5664 5663 5661 5661 5660 5659 5658 5658 5658 5658 5658 5659 5660 5661
5685 5682 5680 5678 5675 5673 5672 5669 5666 5665 5663 5661 5660 5658 5656 5656 5655 5655 5655 5654 5654 5653 5651 5656 5659 5661 5660 5660 5659 5658 5657 5656 5656 5656 5655 5654 5654 5654 5654 5654 5655 5655 5656
5681 5679 5677 5674 5672 5670 5668 5665 5663 5662 5659 5656 5655 5653 5652 5652 5650 5650 5649 5649 5649 5650 5649 5649 5652 5652 5653 5653 5653 5652 5652 5652 5651 5651 5650 5650 5650 5650 5650 5650 5651 5651 5652
5676 5675 5673 5670 5667 5666 5664 5663 5660 5658 5656 5653 5652 5650 5649 5647 5646 5645 5644 5644 5644 5646 5645 5644 5645 5646 5646 5647 5645 5645 5646 5646 5646 5646 5646 5646 5646 5646 5646 5647 5647 5648 5648
5672 5670 5668 5666 5664 5662 5661 5659 5657 5654 5652 5650 5649 5647 5646 5644 5642 5640 5639 5639 5639 5638 5639 5638 5638 5639 5639 5639 5638 5637 5637 5638 5639 5640 5640 5640 5641 5642 5643 5644 5644 5644 5644
5668 5665 5663 5661 5659 5657 5656 5654 5651 5650 5647 5645 5644 5643 5642 5641 5639 5637 5636 5634 5633 5632 5632 5632 5631 5632 5632 5630 5630 5631 5630 5631 5632 5634 5634 5635 5635 5636 5638 5639 5640 5640 5641
5662 5661 5659 5656 5654 5653 5649 5646 5644 5643 5641 5639 5638 5637 5637 5636 5635 5632 5631 5630 5629 5627 5626 5625 5625 5625 5625 5625 5625 5624 5623 5623 5624 5629 5627 5628 5630 5632 5634 5636 5638 5638 5638
5657 5655 5653 5651 5649 5646 5643 5640 5638 5636 5635 5633 5632 5631 5631 5632 5629 5628 5626 5625 5624 5623 5623 5621 5620 5621 5621 5621 5619 5618 5618 5618 5619 5623 5622 5623 5625 5626 5630 5634 5635 5635 5635
5651 5649 5647 5646 5644 5641 5637 5634 5632 5630 5629 5629 5628 5627 5626 5625 5625 5622 5621 5620 5619 5619 5619 5618 5618 5618 5618 5618 5616 5614 5614 5614 5616 5618 5619 5617 5620 5623 5626 5628 5631 5632 5632
5646 5644 5642 5641 5639 5635 5631 5628 5625 5625 5624 5623 5623 5623 5622 5620 5618 5617 5615 5614 5614 5614 5615 5615 5615 5614 5614 5613 5611 5608 5607 5606 5608 5611 5614 5613 5616 5617 5619 5622 5625 5626 5627
5642 5640 5639 5637 5635 5631 5627 5623 5620 5620 5619 5619 5618 5617 5616 5614 5612 5610 5609 5609 5608 5609 5609 5610 5609 5610 5610 5610 5608 5606 5605 5603 5603 5605 5610 5609 5610 5610 5611 5616 5619 5619 5620